FENGYUN 1C DEB, 33681

Orbit data source: Space-Track

FENGYUN 1C DEB, 33681 is space debris in SSO originally from a launch on Mon, 10 May 1999 UTC launched from the Taiyaun Space Center, China (TSC). Fengyun 1C debris stems from the Chinese weather satellite Fengyun-1C, which was intentionally destroyed by a Chinese anti-satellite missile in 2007. This event dramatically increased the amount of space debris, with thousands of trackable fragments posing hazards to satellites and human spaceflight. The Fengyun 1C debris cloud has become a focal point in discussions about space sustainability and the need for international regulations to prevent the creation of new debris.

Loading next visibility...
Identifier
33681, 1999-025DFS
Orbit
SSO
Country
Flag of CNCN / PRC
Related business
Manufacturer
Unknown
Mission
Spacecraft
Bus & Motor
Unknown
Mass
Unknown
Launch date (UTC)
1999-05-10 (27 years ago)
Launch vehicle
Unknown
Launch site
Taiyaun Space Center, China (TSC)
Object type
Payload
Rocket body
Debris
Shape & HBR
Unknown shape, 0.1 m
Radar Cross Section
Small (<0.1 m²)

Expand to show TLE details & history
Last TLE update: 1 year ago

TLE from 1 year ago
0 FENGYUN 1C DEB
1 33681U 99025DFS 25179.69661058  .00000826  00000-0  55307-3 0  9990
2 33681  99.0575 236.7941 0101270 139.6576 349.4128 14.01198282631533
Epoch: 2025-06-28T16:43Z
TLE epoch observation values (Epoch: 2025-06-28T16:43:07.154Z)
Latitude
50.36757°
Longitude
-99.97945°
Altitude
825.301 km
Speed
7.482 km/s
True Right ascension
04h 31m 19s
True Declination
50° 12' 00"
Sunlit
Object was in daylight at epoch
Visualization orbit readout
Latitude
Unknown
Longitude
Unknown
Altitude
Unknown
Speed
Unknown
Apparent Right ascension
Unknown
Apparent Declination
Unknown
Sunlit
N/A
Visualization observer readout
Local Sidereal Time
14:01:11
Azimuth
Unknown
Elevation
Unknown
Doppler factor
Unknown
Orbital elements
Apogee altitude
960.421 km
Perigee altitude
813.276 km
Semi-major axis
7,264.986 km
Eccentricity
0.01013
Inclination
99.0575°
RAAN
236.7941°
Arg. of periapsis
139.6576°
True anomaly
349.1969°
Mean anomaly
349.4128°
Eccentric anomaly
349.30512°
Mean motion
3.50502 °/min
Orbital period
102.71 mins
BSTAR
0.00055307
Loading maneuver chart data...
Computing Atmospheric mass density...

Documentation

Showing up to 5 results
|